Weather Roundup
Issued by NWS

Home | Current Version | Previous Version | Text Only | Print | Product List | Glossary On
Versions: 1 2 3 4 5 6 7 8 9 10 11 12 13 14 15 16 17 18 19 20 21 22 23 24 25 26 27 28 29 30 31 32 33 34 35 36 37 38 39 40 41 42 43 44 45 46 47 48 49 50
000
NZUS93 KARX 231859
HRRWXR

CURRENT HOURLY OBSERVATIONS ACROSS
MUCH OF THE UPPER MISSISSIPPI VALLEY
NATIONAL WEATHER SERVICE LA CROSSE WI
200 PM CDT SAT SEP 23 2017


...SOUTHEAST MINNESOTA...


CITY           SKY/WX    TMP DP  RH WIND       PRES   REMARKS
ROCHESTER      MOSUNNY   84  68  58 S10       30.00F
ROCHESTER/MAYO FAIR      87  65  49 S10G18    29.99F
WINONA         MOSUNNY   90  64  43 SW6       29.99F HX  91
AUSTIN         MOSUNNY   84  66  54 S10       29.98F
ALBERT LEA     MOSUNNY   90  70  51 S7        29.98F HX  95
DODGE CENTER   MOSUNNY   88  66  48 S12       29.99F HX  90
PRESTON        MOSUNNY   86  64  48 S14       30.01F
OWATONNA       MOSUNNY   86  72  62 S13       29.97F HX  92
FARIBAULT      MOSUNNY   84  70  61 S8        29.97F
$$

...ELSEWHERE IN MINNESOTA...


CITY           SKY/WX    TMP DP  RH WIND       PRES   REMARKS
MINNEAPOLIS    PTSUNNY   86  71  60 S9        29.95F HX  91
INTNL FALLS    CLOUDY    58  54  86 VRB5      30.00R
DULUTH         MOSUNNY   82  71  69 SW10      29.95F
RED WING       PTSUNNY   90  66  45 S7        29.95F HX  92
REDWOOD FALLS  CLOUDY    75  64  68 NW7       29.95F
MANKATO        SUNNY     86  71  60 S8        29.95F HX  91
WORTHINGTON    PTSUNNY   83  69  62 S10       29.95F
FAIRMONT       MOSUNNY   87  69  54 S16G28    29.95F HX  91
$$

...SOUTHWEST WISCONSIN...


CITY           SKY/WX    TMP DP  RH WIND       PRES   REMARKS
LA CROSSE      MOSUNNY   91  67  44 S13       29.99F HX  94
PRAIRIE DU CHI SUNNY     91  62  37 S5        30.02F HX  91
BOSCOBEL       MOSUNNY   93  63  36 VRB7      30.02F HX  94
LONE ROCK      NOT AVBL
PLATTEVILLE    SUNNY     91  64  40 SW9       30.07F HX  92
FORT MC COY    MOSUNNY   89  66  45 S16       30.03F HX  91
MAUSTON-NEW LI PTCLDY    89  69  50 SW7       30.04F HX  94
VIROQUA        FAIR      88  66  47 SW14G22   30.06F HX  90
WIS DELLS      NOT AVBL
$$

...ELSEWHERE IN WISCONSIN...


CITY           SKY/WX    TMP DP  RH WIND       PRES   REMARKS
MILWAUKEE      MOSUNNY   88  68  51 SE10      30.07F HX  91
MADISON        MOSUNNY   91  63  39 S9        30.05F HX  92
GREEN BAY      SUNNY     89  69  51 SW12      30.05F HX  93
EAU CLAIRE     NOT AVBL
BLACK RVR FLS  FAIR      92  60  34 S7G18     30.01F HX  91
MEDFORD        PTSUNNY   82  67  59 S12       30.05S
WAUSAU         LGT RAIN  85  65  51 SW14G22   30.03F
WIS RAPIDS     MOSUNNY   89  68  49 SW9       30.05F HX  93
MARSHFIELD     MOSUNNY   87  65  47 SW12      30.04F
RICE LAKE      CLOUDY    86  68  55 S12       30.00S
$$

...NORTHEAST IOWA...


CITY           SKY/WX    TMP DP  RH WIND       PRES   REMARKS
WATERLOO       MOSUNNY   90  62  39 S12G22    29.99F HX  90
DUBUQUE        SUNNY     87  66  49 S7        30.06F
DECORAH        MOSUNNY   88  66  48 VRB5G13   30.02F HX  90
MASON CITY     MOSUNNY   87  66  49 S15G22    30.00F
CHARLES CITY   MOSUNNY   90  64  43 S13       30.01F HX  91
OELWEIN        MOSUNNY   91  64  40 S14G21    30.03F HX  93
$$

...ELSEWHERE IN IOWA...


CITY           SKY/WX    TMP DP  RH WIND       PRES   REMARKS
DES MOINES     MOSUNNY   91  65  41 S16G22    29.98F HX  93
IOWA CITY      SUNNY     93  65  39 VRB3      30.03F HX  95
FORT DODGE     MOSUNNY   89  67  47 S14       29.97F HX  92
MARSHALLTOWN   MOSUNNY   91  65  41 S15G21    30.00F HX  93
CEDAR RAPIDS   MOSUNNY   93  63  36 S10       30.02F HX  94
$$

...NORTHERN ILLINOIS...


CITY           SKY/WX    TMP DP  RH WIND       PRES   REMARKS
CHICAGO-OHARE  MOSUNNY   92  61  35 SE6       30.06F HX  92
CHICAGO-MIDWAY MOSUNNY   93  63  36 SE3       30.06F HX  94
MOLINE         MOSUNNY   93  63  36 S7        30.03F HX  94
ROCKFORD       PTSUNNY   92  63  38 VRB5      30.07F HX  93
PEORIA         SUNNY     91  65  41 MISG      30.06F HX  93
$$

NOTE: "FAIR" INDICATES FEW OR NO CLOUDS BELOW 12,000 FEET WITH NO
SIGNIFICANT WEATHER AND/OR OBSTRUCTIONS TO VISIBILITY. WIND
SPEEDS ARE IN MILES-PER-HOUR.




USA.gov is the U.S. government's official web portal to all federal, state and local government web resources and services.